Lid_Strength_Index
9 9 9 9 9 9 9 9 9 9 9 9 9 9 9 9 9 9 9 8 8 8 8 8 7 7 6 6 5 5 5 5 7 6 5 4 5 7 7 7 7 7 8
9 10 10 10 10 10 10 10 10 10 10 10 10 10 10 10 10 10 10 10 9 9 9 8 8 7 8 8 7 7 7 6 7 8 6 6 6 5 6 7 8 8 9
10 10 11 11 11 11 11 11 11 11 11 11 11 11 11 10 10 10 10 10 10 9 9 9 9 9 10 10 9 8 8 7 7 7 8 6 6 8 9 10 10 10 9
10 11 12 13 12 12 12 12 12 12 12 12 12 12 12 11 11 10 11 11 11 10 10 10 10 10 11 10 10 10 9 9 8 8 8 7 7 7 11 11 10 11 11
12 13 13 13 12 12 13 13 14 14 13 13 13 13 12 12 11 11 12 12 12 12 12 11 11 11 11 10 10 11 10 10 9 9 9 8 8 8 11 10 11 11 11
13 14 13 14 14 14 15 15 15 15 15 15 14 14 14 12 11 10 11 12 13 13 13 12 12 13 12 10 9 9 8 10 10 10 10 10 10 9 9 10 10 12 12
14 15 15 14 15 15 15 16 16 15 15 15 15 15 15 14 12 11 11 13 13 13 13 13 13 12 12 11 10 9 9 9 8 9 10 10 10 9 9 10 11 11 11
15 15 15 16 16 16 16 16 16 16 16 16 15 16 15 15 12 12 11 13 14 14 13 13 12 11 10 10 10 11 11 11 10 10 10 9 9 9 9 10 10 11 10
15 16 16 16 18 17 18 17 16 17 17 17 16 17 18 15 13 12 12 13 13 13 12 11 11 11 10 9 11 12 12 11 9 8 7 7 7 7 8 10 11 12 12
17 17 17 17 19 19 18 18 18 18 16 16 16 17 17 17 13 12 11 13 13 13 11 11 10 9 10 10 11 11 12 10 10 10 10 9 9 10 9 10 9 11 12
17 18 19 18 20 19 19 19 20 19 17 17 17 16 18 17 15 11 10 11 12 12 12 11 10 10 10 9 8 10 11 9 9 11 10 11 12 12 12 12 12 11 12
20 21 22 24 22 19 23 22 21 20 19 18 20 16 15 17 13 10 9 9 10 11 12 11 11 10 9 8 8 8 8 9 9 10 11 12 13 13 14 14 14 14 13
24 25 25 24 23 23 24 22 22 23 21 17 17 17 16 14 14 11 10 10 9 10 11 10 9 8 8 8 7 8 8 8 10 11 12 12 12 12 12 13 13 14 14
27 25 24 24 23 24 21 20 23 23 19 18 18 17 16 15 14 13 12 11 10 10 10 10 9 8 7 7 8 8 9 9 10 10 11 11 11 12 13 13 14 14 15
25 24 24 23 26 23 21 20 18 18 18 17 16 16 16 16 14 12 11 12 11 9 9 11 9 9 9 9 10 10 9 9 9 9 11 13 12 12 13 13 12 13 15
25 24 25 24 25 22 21 20 16 15 14 13 13 14 14 12 12 11 11 10 9 7 9 12 10 8 8 8 10 10 10 10 9 10 11 11 13 13 13 12 13 15 17
30 27 27 24 24 24 22 22 22 19 16 15 15 14 13 13 12 11 10 9 8 7 8 9 8 8 8 9 9 10 12 12 11 11 13 13 12 13 13 14 15 16 17
31 26 28 27 27 26 26 23 23 23 23 21 18 16 15 14 13 11 10 9 9 8 7 8 8 8 9 10 11 12 13 14 15 15 14 14 14 14 16 16 16 18 19
29 29 29 28 28 27 25 23 23 22 22 22 21 18 17 15 13 11 9 10 9 8 11 10 9 9 10 11 11 13 14 16 17 17 16 16 17 16 17 18 17 18 19
31 26 27 29 28 27 25 24 23 23 22 22 21 20 18 18 17 15 13 10 9 11 10 11 11 11 12 12 13 15 16 17 17 17 18 17 18 16 17 19 20 20 23
30 30 26 28 29 28 25 24 23 22 22 22 21 19 14 15 15 15 12 14 12 11 11 12 12 13 13 14 15 15 17 18 19 19 19 19 20 20 20 20 22 23 24
31 30 29 29 27 24 25 23 23 22 21 20 19 17 13 15 15 13 17 16 15 14 13 13 14 14 14 15 16 17 18 20 20 21 21 21 21 21 22 22 23 27 29
29 29 28 29 28 25 25 25 22 21 20 20 18 17 15 14 16 18 19 18 17 17 16 16 17 17 17 18 17 17 19 20 21 21 21 22 22 22 23 23 25 29 29
29 28 29 29 29 28 26 24 22 21 21 19 19 18 17 18 19 23 22 19 18 18 18 18 18 18 19 20 20 20 20 22 21 21 21 21 22 22 23 27 28 29 29
30 30 30 30 30 28 27 26 23 23 21 21 20 19 19 21 21 24 22 20 19 19 19 19 19 19 21 21 21 21 19 20 22 21 22 22 23 23 26 25 27 29 31
31 31 31 30 30 30 29 26 24 23 22 21 21 20 20 22 22 24 23 21 20 20 20 19 20 20 20 20 21 20 21 21 22 22 22 23 23 25 26 27 27 30 32